West Bend, WI

4:58 PM CDT on May 26, 2017 (GMT -0500)
West Bend Municipal

Weather History for KETB - August, 2014

Change the Weather History Date:

Saturday, August 16, 2014

  Actual Average Record
Temperature  
Mean Temperature 70 °F -  
Max Temperature 80 °F 81 °F 105 °F (1988)
Min Temperature 60 °F 58 °F 39 °F (1979)
Cooling Degree Days 5    
Growing Degree Days 20 (Base 50)    
Moisture  
Dew Point 59 °F    
Average Humidity 72    
Maximum Humidity 88    
Minimum Humidity 51    
Precipitation  
Precipitation 0.10 in - - ()
Sea Level Pressure  
Sea Level Pressure 29.90 in    
Wind  
Wind Speed 8 mph (West)    
Max Wind Speed 16 mph    
Max Gust Speed 21 mph    
Visibility 10 miles    
Events Rain    
Averages and records for this station are not official NWS values.
T = Trace of Precipitation, MM = Missing Value Source: NWS Daily Summary

Daily Weather History Graph

Daily Weather History Graph

Search for Another Location

Airport or City:

Trip Planner

Search our weather history database for the weather conditions in past years. The results will help you decide how hot, cold, wet, or windy it might be!

Date:

Astronomy

Aug. 16, 2014 Rise Set
Actual Time 5:58 AM CDT 7:54 PM CDT
Civil Twilight 5:27 AM CDT 8:24 PM CDT
Nautical Twilight 4:50 AM CDT 9:02 PM CDT
Astronomical Twilight 4:08 AM CDT 9:43 PM CDT
Moon 11:24 PM CDT (8/16) 12:57 PM CDT (8/16)
Length of Visible Light 14h 56m
Length of Day
13h 55m
Waning Gibbous, 58% of the Moon is Illuminated
Aug 16
Waning Gibbous
Aug 17
Last Quarter
Aug 25
New
Sep 2
First Quarter
Sep 8
Full

Hourly Weather History & Observations

Time (CDT) Temp. Heat Index Dew Point Humidity Pressure Visibility Wind Dir Wind Speed Gust Speed Precip Events Conditions
12:15 AM 64.4 °F - 55.4 °F 73% 29.93 in 10.0 mi WSW 6.9 mph - N/A   Clear
12:35 AM 64.4 °F - 55.4 °F 73% 29.92 in 10.0 mi SW 6.9 mph - N/A   Clear
12:55 AM 64.4 °F - 55.4 °F 73% 29.92 in 10.0 mi WSW 6.9 mph - N/A   Clear
1:15 AM 64.4 °F - 55.4 °F 73% 29.91 in 10.0 mi SW 8.1 mph - N/A   Clear
1:35 AM 64.4 °F - 55.4 °F 73% 29.91 in 10.0 mi SW 6.9 mph - N/A   Clear
1:55 AM 64.4 °F - 55.4 °F 73% 29.91 in 10.0 mi SW 8.1 mph - N/A   Clear
2:15 AM 64.4 °F - 55.4 °F 73% 29.90 in 10.0 mi SW 8.1 mph - N/A   Clear
2:35 AM 62.6 °F - 55.4 °F 77% 29.89 in 10.0 mi SW 5.8 mph - N/A   Clear
2:55 AM 62.6 °F - 55.4 °F 77% 29.89 in 10.0 mi SW 5.8 mph - N/A   Clear
3:15 AM 64.4 °F - 57.2 °F 77% 29.89 in 10.0 mi SW 5.8 mph - N/A   Clear
3:35 AM 64.4 °F - 57.2 °F 77% 29.90 in 10.0 mi SW 6.9 mph - N/A   Clear
3:55 AM 64.4 °F - 57.2 °F 77% 29.89 in 10.0 mi SW 8.1 mph - N/A   Clear
4:15 AM 64.4 °F - 57.2 °F 77% 29.90 in 10.0 mi WSW 6.9 mph - N/A   Clear
4:35 AM 62.6 °F - 57.2 °F 82% 29.91 in 10.0 mi WSW 6.9 mph - N/A   Clear
4:55 AM 62.6 °F - 57.2 °F 82% 29.91 in 10.0 mi SW 8.1 mph - N/A   Clear
5:15 AM 62.6 °F - 57.2 °F 82% 29.90 in 10.0 mi WSW 6.9 mph - N/A   Clear
5:35 AM 62.6 °F - 57.2 °F 82% 29.91 in 10.0 mi WSW 9.2 mph - N/A   Clear
5:55 AM 62.6 °F - 57.2 °F 82% 29.91 in 10.0 mi WSW 8.1 mph - N/A   Clear
6:15 AM 62.6 °F - 57.2 °F 82% 29.91 in 10.0 mi WSW 5.8 mph - N/A   Clear
6:35 AM 62.6 °F - 59.0 °F 88% 29.91 in 10.0 mi WSW 6.9 mph - N/A   Clear
6:55 AM 62.6 °F - 59.0 °F 88% 29.91 in 10.0 mi West 5.8 mph - N/A   Mostly Cloudy
7:15 AM 62.6 °F - 59.0 °F 88% 29.91 in 10.0 mi WSW 4.6 mph - N/A   Mostly Cloudy
7:35 AM 62.6 °F - 59.0 °F 88% 29.91 in 10.0 mi West 8.1 mph - N/A   Mostly Cloudy
7:55 AM 64.4 °F - 59.0 °F 83% 29.90 in 7.0 mi West 8.1 mph - N/A   Mostly Cloudy
8:15 AM 64.4 °F - 59.0 °F 83% 29.90 in 7.0 mi West 10.4 mph - N/A   Mostly Cloudy
8:35 AM 66.2 °F - 60.8 °F 83% 29.90 in 7.0 mi West 10.4 mph - N/A   Mostly Cloudy
8:55 AM 66.2 °F - 60.8 °F 83% 29.90 in 10.0 mi West 10.4 mph - N/A   Mostly Cloudy
9:15 AM 68.0 °F - 60.8 °F 78% 29.90 in 10.0 mi West 9.2 mph - N/A   Scattered Clouds
9:35 AM 69.8 °F - 60.8 °F 73% 29.89 in 10.0 mi West 9.2 mph - N/A   Scattered Clouds
9:55 AM 69.8 °F - 59.0 °F 68% 29.90 in 10.0 mi West 9.2 mph - N/A   Scattered Clouds
10:15 AM 71.6 °F - 59.0 °F 64% 29.90 in 10.0 mi West 9.2 mph - N/A   Scattered Clouds
10:35 AM 71.6 °F - 60.8 °F 69% 29.90 in 10.0 mi West 12.7 mph 16.1 mph N/A   Scattered Clouds
10:55 AM 71.6 °F - 60.8 °F 69% 29.90 in 10.0 mi West 10.4 mph - N/A   Clear
11:35 AM 73.4 °F - 60.8 °F 65% 29.90 in 10.0 mi West 11.5 mph 16.1 mph N/A   Clear
12:15 PM 77.0 °F - 62.6 °F 61% 29.90 in 10.0 mi WNW 13.8 mph 17.3 mph N/A   Clear
12:35 PM 77.0 °F - 62.6 °F 61% 29.90 in 10.0 mi West 6.9 mph - N/A   Scattered Clouds
12:55 PM 77.0 °F - 60.8 °F 57% 29.90 in 10.0 mi WNW 12.7 mph 18.4 mph N/A   Scattered Clouds
1:15 PM 77.0 °F - 62.6 °F 61% 29.89 in 10.0 mi West 9.2 mph 16.1 mph N/A   Scattered Clouds
1:35 PM 78.8 °F - 62.6 °F 57% 29.88 in 10.0 mi West 9.2 mph 18.4 mph N/A   Scattered Clouds
1:55 PM 77.0 °F - 62.6 °F 61% 29.88 in 10.0 mi West 8.1 mph - N/A   Mostly Cloudy
2:15 PM 78.8 °F - 62.6 °F 57% 29.88 in 10.0 mi WSW 10.4 mph - N/A   Mostly Cloudy
2:35 PM 80.6 °F 81.8 °F 62.6 °F 54% 29.88 in 10.0 mi WNW 9.2 mph - N/A   Mostly Cloudy
2:55 PM 80.6 °F 81.8 °F 62.6 °F 54% 29.87 in 10.0 mi West 8.1 mph - N/A   Scattered Clouds
3:15 PM 80.6 °F 81.5 °F 60.8 °F 51% 29.87 in 10.0 mi West 11.5 mph 16.1 mph N/A   Scattered Clouds
3:35 PM 80.6 °F 81.5 °F 60.8 °F 51% 29.87 in 10.0 mi West 11.5 mph 16.1 mph N/A   Mostly Cloudy
3:55 PM 80.6 °F 81.5 °F 60.8 °F 51% 29.87 in 10.0 mi West 9.2 mph - N/A   Mostly Cloudy
4:15 PM 80.6 °F 81.5 °F 60.8 °F 51% 29.87 in 10.0 mi WSW 8.1 mph - N/A   Mostly Cloudy
4:35 PM 80.6 °F 81.5 °F 60.8 °F 51% 29.86 in 10.0 mi West 5.8 mph - N/A   Scattered Clouds
4:55 PM 80.6 °F 81.5 °F 60.8 °F 51% 29.86 in 10.0 mi WSW 8.1 mph - N/A   Clear
5:15 PM 80.6 °F 81.5 °F 60.8 °F 51% 29.86 in 10.0 mi West 6.9 mph - N/A   Clear
5:35 PM 80.6 °F 81.8 °F 62.6 °F 54% 29.86 in 10.0 mi WSW 8.1 mph - N/A   Clear
5:55 PM 80.6 °F 81.8 °F 62.6 °F 54% 29.87 in 10.0 mi WSW 4.6 mph - N/A   Clear
6:15 PM 80.6 °F 81.5 °F 60.8 °F 51% 29.87 in 10.0 mi West 5.8 mph - N/A   Clear
6:35 PM 78.8 °F - 62.6 °F 57% 29.87 in 10.0 mi West 4.6 mph - N/A   Scattered Clouds
6:55 PM 78.8 °F - 62.6 °F 57% 29.87 in 10.0 mi WSW 3.5 mph - N/A   Scattered Clouds
7:15 PM 77.0 °F - 62.6 °F 61% 29.88 in 10.0 mi North 8.1 mph - N/A   Scattered Clouds
7:35 PM 69.8 °F - 62.6 °F 78% 29.90 in 10.0 mi NE 13.8 mph - N/A   Mostly Cloudy
7:55 PM 68.0 °F - 62.6 °F 83% 29.91 in 7.0 mi NE 10.4 mph - N/A   Overcast
8:15 PM 66.2 °F - 60.8 °F 83% 29.91 in 10.0 mi NE 10.4 mph 13.8 mph N/A   Overcast
8:35 PM 64.4 °F - 59.0 °F 83% 29.93 in 10.0 mi NE 9.2 mph 19.6 mph N/A   Overcast
8:55 PM 64.4 °F - 59.0 °F 83% 29.94 in 10.0 mi ENE 11.5 mph - N/A   Overcast
9:15 PM 62.6 °F - 59.0 °F 88% 29.94 in 10.0 mi ENE 11.5 mph - N/A   Overcast
9:35 PM 62.6 °F - 57.2 °F 82% 29.95 in 10.0 mi NE 9.2 mph - N/A Rain Light Rain
9:55 PM 62.6 °F - 59.0 °F 88% 29.95 in 10.0 mi NE 9.2 mph - N/A Rain Rain
10:15 PM 62.6 °F - 59.0 °F 88% 29.95 in 10.0 mi NE 16.1 mph 20.7 mph N/A   Light Drizzle
10:35 PM 60.8 °F - 57.2 °F 88% 29.96 in 10.0 mi NE 9.2 mph - N/A   Light Drizzle
10:55 PM 60.8 °F - 57.2 °F 88% 29.97 in 10.0 mi NE 6.9 mph - N/A Rain Rain
11:15 PM 60.8 °F - 57.2 °F 88% 29.96 in 7.0 mi NE 8.1 mph - 0.05 in Rain Light Rain
11:35 PM 60.8 °F - 57.2 °F 88% 29.97 in 10.0 mi ENE 9.2 mph - 0.08 in Rain Rain
11:55 PM 60.8 °F - 57.2 °F 88% 29.97 in 7.0 mi NE 9.2 mph - 0.10 in   Drizzle